STARLINK-30257 (57526 NORAD) Tracking and Keplerian Element Data

This shows tracking and keplerian element data for the satellite.

Feedback or suggestion? Click here.




ElementValue
Catalog57526
NameSTARLINK-30257
Epoch Orbit396
Epoch Day238.91667824
Epoch Year2023
RAAN1.0691
Inclination42.9993
Eccentricity0.0001499
Argument of Perigee271.2934
Mean Anonmoly123.9699
Mean Motion15.55688971
Decay Rate-0.01693659
L11 57526U 23115F 23238.91667824 -.01693659 00000+0 -26787-1 0 9999
L22 57526 42.9993 1.0691 0001499 271.2934 123.9699 15.55688971 3963



Live tracking and technical data element details for STARLINK-30257 (NORAD 57526). STARLINK-30257 can be tracked NOW for your location showing map with azimuth and elevation plus other details from your city location.







IsCatalogInMostPopularTable: catalog: 57526, numindb: 6
Update: records affected: 1



GetName: 57526 STARLINK-30257

Hit Count: updated at: Tue, 26 Sep 2023 13:32:13 GMT